Погода в Мьей

Мьянма     12°26′07″N   98°43′03″E
темп.,
°C
ветер,
м/с
пор.,
м/с
влажн.,
%
обл.,
%
осадки,
мм/ч
давл.,
гПа
погр.,
м
19 мая, ср
ср1900:30+26в119398 5.1 100943
03:30+25всв119446 0.3 100741
06:30+26св119341 0.3 100971
09:30+31зсз236649 0.1 10101105
12:30+33з4558100 1.4 10081524
15:30+30з3470100 1.5 10071100
18:30+27зюз128292 1.5 100769
21:30+26ю0186100 0.0 100952
20 мая, чт
чт2000:30+26з018989 0.3 100859
03:30+26зюз1188100 0.1 100751
06:30+27ю018797 0.2 100984
09:30+32зюз236058 0.1 10101375
12:30+33зюз445684 0.1 10081597
15:30+30з357682 1.9 1006790
18:30+27з128987 5.6 100860
21:30+26юв019128 0.6 100940
21 мая, пт
пт2100:30+26юв0192100 0.9 100843
03:30+25в119479 0.0 100746
06:30+26в119298 0.1 100893
09:30+30юз3573100 1.4 10091007
12:30+29з4681100 7.1 1008856
15:30+27з4889100 9.3 1006452
18:30+26зюз4989100 20.9 1007370
21:30+25юз1697100 9.5 1009223
22 мая, сб
сб2200:30+25зюз1597100 13.5 1008232
03:30+24зюз1296100 1.4 100780
06:30+25з0194100 2.9 100864
09:30+27юз2487100 4.0 1009653
12:30+25юз2495100 13.6 1007391
15:30+24ююз3997100 19.8 1005616
18:30+24юз31097100 40.7 1007757
21:30+25юз51194100 5.3 1008732
23 мая, вс
вс2300:30+25зюз51195100 16.6 1006867
03:30+23юз61496100 31.8 1005931
06:30+24юз41095100 50.9 1006575
09:30+25ююз2996100 13.8 1006626
12:30+24юз51396100 84.9 10061027
15:30+25юз71392100 14.6 10041042
18:30+25зюз51391100 24.3 1005913
21:30+26юз51190100 5.4 1006806